User: anonymous
Location: Veyrier
(46.1830°N, 6.2000°E)
Time: 17:27:48
(UTC+02:00)
Language:

Iridium 98 - Orbit

View from above orbital plane
View from above orbital plane
View from above satellite
View from above satellite

Ground track
Ground track

The orbit data is extracted from the following two-line orbital elements,

1 27451U 02031B   14258.49646905  .00000173  00000-0  54645-4 0  4868
2 27451 086.3915 082.6406 0001921 109.2717 305.2558 14.34220156647158
Epoch (UTC): 15 September 2014 11:54:54
Eccentricity: 0.0001921
inclination: 86.3915°
perigee height: 776 km
apogee height: 779 km
right ascension of ascending node: 82.6406°
argument of perigee: 109.2717°
revolutions per day: 14.34220156
mean anomaly at epoch: 305.2558°
orbit number at epoch: 64715

The dashed part of the orbit path shows where the satellite is in the earth's shadow,  

DLR